Kimball, NE

3:15 AM MST on November 20, 2017 (GMT -0700)
Kimball Municipal-Arraj

Weather History for KIBM - September, 2013

Change the Weather History Date:

Friday, September 6, 2013

  Actual Average (KSNY) Record (KSNY)
Temperature  
Mean Temperature 82 °F -  
Max Temperature 97 °F 83 °F 102 °F (2013)
Min Temperature 68 °F 49 °F 35 °F (2017)
Cooling Degree Days 18    
Growing Degree Days 32 (Base 50)    
Moisture  
Dew Point 51 °F    
Average Humidity 42    
Maximum Humidity 71    
Minimum Humidity 14    
Precipitation  
Precipitation 0.10 in - - ()
Sea Level Pressure  
Sea Level Pressure 30.12 in    
Wind  
Wind Speed 7 mph (WNW)    
Max Wind Speed 22 mph    
Max Gust Speed 32 mph    
Visibility 10 miles    
Events Rain , Thunderstorm    
Averages and records for this station are not official NWS values.
T = Trace of Precipitation, MM = Missing Value Source: NWS Daily Summary

Daily Weather History Graph

Daily Weather History Graph

Search for Another Location

Airport or City:

Trip Planner

Search our weather history database for the weather conditions in past years. The results will help you decide how hot, cold, wet, or windy it might be!

Date:

Astronomy

Sep. 06, 2013 Rise Set
Actual Time 7:26 AM CDT 8:18 PM CDT
Civil Twilight 6:58 AM CDT 8:46 PM CDT
Nautical Twilight 6:25 AM CDT 9:19 PM CDT
Astronomical Twilight 5:50 AM CDT 9:54 PM CDT
Moon 8:42 AM CDT (9/6) 8:42 PM CDT (9/6)
Length of Visible Light 13h 48m
Length of Day
12h 52m
New Moon, 2% of the Moon is Illuminated
Sep 6
New Moon
Sep 12
First Quarter
Sep 19
Full
Sep 26
Last Quarter
Oct 4
New

Hourly Weather History & Observations

Time (CDT) Temp. Heat Index Dew Point Humidity Pressure Visibility Wind Dir Wind Speed Gust Speed Precip Events Conditions
12:15 AM 71.1 °F - 55.8 °F 58% 30.13 in 10.0 mi SW 4.6 mph - N/A   Clear
12:35 AM 68.9 °F - 55.4 °F 62% 30.13 in 10.0 mi WNW 3.5 mph - N/A   Clear
12:55 AM 69.1 °F - 55.9 °F 63% 30.13 in 10.0 mi Calm Calm - N/A   Clear
1:15 AM 70.0 °F - 55.0 °F 59% 30.13 in 10.0 mi West 8.1 mph - N/A   Clear
1:35 AM 71.1 °F - 54.9 °F 56% 30.13 in 10.0 mi West 4.6 mph - N/A   Clear
1:55 AM 70.3 °F - 55.2 °F 59% 30.13 in 10.0 mi Calm Calm - N/A   Clear
2:15 AM 68.9 °F - 54.1 °F 59% 30.14 in 10.0 mi SSW 5.8 mph - N/A   Clear
2:35 AM 68.0 °F - 54.3 °F 62% 30.14 in 10.0 mi SSW 8.1 mph - N/A   Clear
2:55 AM 69.3 °F - 54.5 °F 59% 30.14 in 10.0 mi WSW 8.1 mph - N/A   Clear
3:15 AM 70.7 °F - 54.1 °F 56% 30.14 in 10.0 mi WSW 6.9 mph - N/A   Clear
3:35 AM 69.8 °F - 54.7 °F 59% 30.14 in 10.0 mi West 4.6 mph - N/A   Clear
3:55 AM 69.8 °F - 54.5 °F 58% 30.13 in 10.0 mi WSW 5.8 mph - N/A   Clear
4:15 AM 70.0 °F - 53.8 °F 56% 30.13 in 10.0 mi WSW 4.6 mph - N/A   Clear
4:35 AM 70.5 °F - 52.9 °F 54% 30.12 in 10.0 mi West 6.9 mph - N/A   Clear
4:55 AM 69.8 °F - 53.2 °F 56% 30.12 in 10.0 mi West 5.8 mph - N/A   Clear
5:15 AM 69.6 °F - 53.4 °F 56% 30.12 in 10.0 mi WSW 4.6 mph - N/A   Clear
5:35 AM 69.1 °F - 53.6 °F 58% 30.12 in 10.0 mi West 5.8 mph - N/A   Clear
5:55 AM 69.8 °F - 53.1 °F 55% 30.13 in 10.0 mi West 6.9 mph - N/A   Clear
6:15 AM 70.3 °F - 52.5 °F 53% 30.13 in 10.0 mi West 5.8 mph - N/A   Clear
6:35 AM 70.3 °F - 52.2 °F 52% 30.13 in 10.0 mi SW 4.6 mph - N/A   Clear
6:55 AM 69.8 °F - 52.5 °F 54% 30.14 in 10.0 mi West 5.8 mph - N/A   Scattered Clouds
7:15 AM 69.8 °F - 52.3 °F 54% 30.14 in 10.0 mi Calm Calm - N/A   Scattered Clouds
7:35 AM 69.8 °F - 52.3 °F 54% 30.14 in 10.0 mi West 8.1 mph - N/A   Clear
7:55 AM 70.9 °F - 50.9 °F 49% 30.14 in 10.0 mi West 8.1 mph - N/A   Clear
8:15 AM 71.1 °F - 50.5 °F 48% 30.14 in 10.0 mi West 9.2 mph - N/A   Clear
8:35 AM 72.5 °F - 49.8 °F 45% 30.15 in 10.0 mi WNW 9.2 mph - N/A   Clear
8:55 AM 77.4 °F - 48.9 °F 37% 30.15 in 10.0 mi WNW 10.4 mph - N/A   Clear
9:15 AM 78.4 °F - 49.1 °F 36% 30.15 in 10.0 mi WNW 8.1 mph - N/A   Clear
9:35 AM 76.5 °F - 50.9 °F 41% 30.15 in 10.0 mi West 4.6 mph - N/A   Clear
9:55 AM 84.0 °F - 49.6 °F 30% 30.15 in 10.0 mi West 5.8 mph - N/A   Clear
10:15 AM 88.9 °F - 48.2 °F 25% 30.15 in 10.0 mi WNW 9.2 mph - N/A   Clear
10:35 AM 90.9 °F - 45.5 °F 21% 30.16 in 10.0 mi West 9.2 mph - N/A   Clear
10:55 AM 92.3 °F - 46.4 °F 21% 30.16 in 10.0 mi NW 11.5 mph - N/A   Clear
11:15 AM 92.8 °F - 47.5 °F 21% 30.16 in 10.0 mi WNW 8.1 mph - N/A   Clear
11:35 AM 92.8 °F - 42.3 °F 17% 30.16 in 10.0 mi NW 11.5 mph 16.1 mph N/A   Clear
11:55 AM 91.4 °F - 42.6 °F 18% 30.16 in 10.0 mi WNW 11.5 mph - N/A   Clear
12:15 PM 92.3 °F - 42.8 °F 18% 30.16 in 10.0 mi NW 6.9 mph - N/A   Clear
12:35 PM 92.5 °F - 42.6 °F 18% 30.15 in 10.0 mi NW 8.1 mph - N/A   Clear
12:55 PM 92.5 °F - 42.8 °F 18% 30.15 in 10.0 mi NNW 5.8 mph - N/A   Clear
1:15 PM 93.2 °F - 42.4 °F 17% 30.14 in 10.0 mi Calm Calm - N/A   Clear
1:35 PM 94.1 °F - 42.1 °F 16% 30.14 in 10.0 mi West 3.5 mph - N/A   Clear
1:55 PM 95.9 °F - 41.5 °F 15% 30.13 in 10.0 mi WSW 3.5 mph - N/A   Clear
2:15 PM 95.5 °F - 40.5 °F 15% 30.13 in 10.0 mi West 3.5 mph - N/A   Clear
2:35 PM 96.8 °F - 40.1 °F 14% 30.12 in 10.0 mi South 3.5 mph - N/A   Clear
2:55 PM 96.3 °F - 40.1 °F 14% 30.11 in 10.0 mi WSW 5.8 mph - N/A   Clear
3:15 PM 97.2 °F - 40.6 °F 14% 30.10 in 10.0 mi WNW 9.2 mph - N/A   Clear
3:35 PM 97.9 °F - 40.6 °F 14% 30.10 in 10.0 mi WNW 9.2 mph - N/A   Clear
3:55 PM 97.3 °F - 40.6 °F 14% 30.09 in 10.0 mi Calm Calm - N/A   Clear
4:15 PM 96.4 °F - 40.6 °F 14% 30.09 in 10.0 mi Calm Calm - N/A   Mostly Cloudy
4:35 PM 93.2 °F - 46.0 °F 20% 30.08 in 10.0 mi ENE 13.8 mph - N/A Thunderstorm Thunderstorm
4:55 PM 79.3 °F - 55.6 °F 44% 30.08 in 4.0 mi ENE 15.0 mph 32.2 mph 0.10 in Rain , Thunderstorm Light Thunderstorms and Rain
5:15 PM 78.4 °F - 58.1 °F 50% 30.09 in 10.0 mi NW 13.8 mph 18.4 mph N/A Rain , Thunderstorm Thunderstorms and Rain
5:35 PM 84.9 °F - 50.0 °F 30% 30.07 in 10.0 mi NNE 5.8 mph - N/A Rain , Thunderstorm Light Thunderstorms and Rain
5:55 PM 81.0 °F 81.2 °F 58.6 °F 46% 30.08 in 10.0 mi NE 8.1 mph - N/A Thunderstorm Scattered Clouds
6:15 PM 81.0 °F - 52.3 °F 37% 30.10 in 10.0 mi NNW 12.7 mph 32.2 mph N/A Rain Light Rain
6:35 PM 81.1 °F - 51.8 °F 36% 30.08 in 10.0 mi WNW 12.7 mph 20.7 mph N/A   Overcast
6:55 PM 79.9 °F - 52.3 °F 38% 30.09 in 10.0 mi West 18.4 mph 27.6 mph N/A Rain Light Rain
7:15 PM 77.9 °F - 55.8 °F 46% 30.10 in 10.0 mi WNW 21.9 mph 29.9 mph N/A   Mostly Cloudy
7:35 PM 75.7 °F - 56.7 °F 51% 30.10 in 10.0 mi WNW 19.6 mph 27.6 mph N/A   Scattered Clouds
7:55 PM 76.5 °F - 55.2 °F 48% 30.08 in 10.0 mi NNW 13.8 mph 20.7 mph N/A   Clear
8:15 PM 76.3 °F - 52.9 °F 44% 30.08 in 10.0 mi NNW 12.7 mph - N/A   Clear
8:35 PM 76.5 °F - 53.8 °F 45% 30.08 in 10.0 mi NNW 12.7 mph 18.4 mph N/A   Clear
8:55 PM 75.9 °F - 54.1 °F 47% 30.09 in 10.0 mi WNW 9.2 mph - N/A   Clear
9:15 PM 74.7 °F - 54.0 °F 48% 30.10 in 10.0 mi NW 9.2 mph - N/A   Clear
9:35 PM 73.9 °F - 54.1 °F 50% 30.11 in 10.0 mi NNW 10.4 mph 17.3 mph N/A   Clear
9:55 PM 73.2 °F - 54.5 °F 52% 30.13 in 10.0 mi North 12.7 mph 18.4 mph N/A   Scattered Clouds
10:15 PM 73.6 °F - 54.9 °F 52% 30.14 in 10.0 mi North 11.5 mph - N/A   Clear
10:35 PM 72.7 °F - 55.0 °F 54% 30.14 in 10.0 mi North 9.2 mph - N/A   Clear
10:55 PM 71.6 °F - 56.5 °F 59% 30.14 in 10.0 mi North 11.5 mph - N/A   Clear
11:15 PM 69.3 °F - 58.1 °F 68% 30.13 in 10.0 mi North 8.1 mph - N/A   Clear
11:35 PM 68.4 °F - 58.8 °F 71% 30.13 in 10.0 mi NW 6.9 mph - N/A   Clear
11:55 PM 68.2 °F - 58.3 °F 71% 30.13 in 10.0 mi North 3.5 mph - N/A   Clear